Theta_e
287 287 288 288 288 288 289 290 291 292 292 292 292 291 290 290 291 290 290 289 289 288 289 289 288 289 288 289 289 289 288 289 286 288 289 290 289 289 289 289 290 290 291
285 285 285 285 285 285 285 285 287 287 289 289 289 288 287 287 286 286 285 286 286 286 287 286 286 287 285 286 286 286 284 286 285 283 285 285 284 286 285 284 287 288 287
284 283 282 282 282 282 283 283 284 285 286 287 286 285 285 284 283 283 283 284 284 284 283 283 282 282 281 282 282 282 282 283 283 281 280 282 282 282 281 282 282 283 284
282 281 280 280 281 281 282 282 283 284 284 284 283 282 282 282 281 281 282 281 281 281 282 281 280 281 280 280 281 280 280 280 279 279 278 278 278 279 278 277 276 279 279
280 280 280 280 280 280 280 280 280 280 280 281 281 281 281 282 280 280 280 280 279 279 280 280 280 279 282 282 280 279 279 278 278 277 276 276 276 275 275 277 276 277 278
280 279 279 279 279 279 279 279 279 278 278 279 279 279 280 281 283 282 281 279 280 279 278 279 279 278 279 281 281 281 280 278 276 276 275 274 275 276 276 275 275 274 273
279 279 279 279 278 278 278 278 277 276 277 277 277 278 279 280 282 282 281 279 278 278 278 277 277 277 278 278 279 279 279 279 279 277 274 275 275 276 276 275 275 275 274
279 278 278 278 277 277 277 276 276 276 276 276 276 277 278 280 281 280 279 278 277 277 276 276 276 275 277 279 277 276 276 276 276 277 277 276 275 276 276 275 275 274 274
278 278 278 277 276 276 275 274 275 275 276 276 276 276 277 278 280 279 278 276 276 275 275 275 275 275 278 280 275 274 273 274 277 278 277 277 277 277 276 274 269 269 267
278 277 277 277 276 275 275 274 275 276 275 276 275 275 275 277 279 278 277 276 275 274 275 275 276 275 278 278 274 272 272 273 273 272 271 272 273 273 275 273 271 267 267
277 276 276 275 275 274 274 274 275 275 275 274 274 273 274 275 276 278 277 276 275 274 274 273 274 276 276 275 274 272 272 273 270 268 268 269 270 270 271 271 271 269 267
275 274 274 274 275 275 274 274 274 273 272 272 271 271 272 272 275 275 276 275 275 273 272 273 274 274 273 273 272 273 273 270 267 265 265 266 267 268 269 269 269 270 270
273 272 272 273 274 274 273 272 272 272 271 270 271 270 270 271 272 273 274 274 274 273 274 272 272 270 270 269 270 270 268 266 265 261 263 265 266 267 267 267 268 268 268
271 271 271 271 272 272 273 272 271 271 271 271 270 269 269 269 269 271 272 272 273 272 270 267 267 267 267 267 266 266 265 265 264 263 263 264 265 264 264 265 264 264 263
270 270 270 270 270 270 271 271 271 272 272 270 270 269 267 267 269 273 272 271 270 269 261 259 260 262 262 262 262 263 263 263 262 263 261 261 262 262 262 263 263 262 260
269 269 269 269 269 269 269 270 273 272 274 273 273 270 270 271 273 273 272 273 272 269 253 252 256 259 259 260 259 260 261 260 261 261 260 260 260 260 260 261 261 260 259
269 269 269 269 268 268 268 268 267 271 273 273 273 272 271 270 272 271 272 272 269 263 250 251 255 257 257 258 258 258 258 260 260 259 259 259 259 259 258 258 259 259 258
269 268 268 268 267 267 267 266 266 263 263 263 268 267 269 270 269 270 271 268 255 256 250 249 250 253 254 255 256 256 257 257 257 257 257 256 256 256 256 256 257 257 257
266 266 266 265 265 265 265 264 263 262 262 261 260 262 263 268 267 269 270 257 252 250 248 248 251 251 253 253 254 253 254 254 255 254 254 254 255 254 255 256 256 257 257
265 265 265 264 263 263 263 262 261 261 260 259 258 258 258 257 253 253 254 251 249 250 250 250 250 250 250 250 250 250 251 251 252 252 253 254 254 254 255 255 255 255 256
263 263 263 263 262 262 262 261 261 260 259 258 258 259 260 255 254 253 253 253 251 250 250 250 250 249 249 249 249 249 250 252 252 252 252 252 252 252 254 255 255 255 256
262 262 261 261 261 261 260 260 260 259 258 257 256 256 264 256 253 251 250 251 250 250 250 250 250 251 251 251 250 249 250 250 251 251 251 252 252 252 252 253 253 254 254
261 260 259 259 259 259 258 258 257 256 255 253 252 252 250 250 250 250 250 250 249 250 250 249 251 251 251 251 251 251 251 251 252 250 250 251 251 251 251 251 252 252 253
259 259 258 257 256 256 256 254 253 254 252 252 250 249 250 249 250 251 251 250 250 250 250 251 251 251 252 251 251 251 252 252 253 252 250 251 251 251 251 251 251 252 253
257 257 257 256 255 255 254 253 253 253 251 251 250 249 248 250 250 250 250 250 251 250 251 251 251 251 251 251 251 251 252 255 255 254 253 252 252 251 250 250 251 252 255
256 256 256 255 255 254 254 253 252 251 251 251 250 250 250 250 250 250 251 250 251 251 252 252 251 251 251 251 251 252 253 256 254 254 253 252 251 251 251 252 254 257 257
Wind_Speed
6 5 6 5 6 6 5 6 6 7 7 7 7 8 8 7 8 5 7 6 8 7 5 7 7 5 4 4 3 4 5 4 2 3 3 4 5 8 9 10 10 10 8
5 6 6 6 6 6 6 6 6 7 7 8 8 9 8 8 7 7 7 6 7 7 6 7 6 6 7 6 6 6 5 4 2 4 3 4 5 10 11 12 10 9 10
6 6 6 6 6 6 6 5 6 7 7 8 8 8 8 7 8 7 7 7 7 7 7 8 8 7 7 5 5 4 5 5 4 3 4 3 3 6 11 8 9 10 9
6 6 6 6 6 6 6 5 7 7 8 8 8 8 8 7 7 6 7 8 8 8 8 8 7 7 6 5 6 6 6 4 4 4 4 5 3 7 5 10 12 9 12
6 6 6 5 6 6 6 6 6 6 6 7 8 7 6 6 5 6 7 7 8 9 8 7 7 7 14 12 5 6 6 5 4 5 5 5 7 10 11 9 11 13 13
7 7 7 7 7 6 6 6 7 7 6 7 7 6 6 6 12 11 8 7 7 7 10 6 6 7 9 12 11 11 8 6 7 5 5 7 9 9 9 9 10 12 11
8 8 9 8 8 7 6 7 7 6 6 7 6 6 6 6 11 11 11 6 6 7 9 6 5 5 5 5 7 8 6 9 7 5 7 8 10 10 11 12 12 11 11
10 10 10 10 9 8 8 7 7 6 7 6 6 5 6 6 10 11 11 6 7 7 7 7 6 5 5 5 6 5 6 6 6 6 6 8 9 10 9 10 12 12 10
13 12 11 11 11 10 10 9 7 8 7 6 6 5 6 6 10 9 8 5 7 6 5 6 5 3 6 10 6 5 6 4 7 10 13 15 15 17 14 7 6 9 10
14 13 11 11 11 10 10 9 7 7 8 7 8 6 6 6 9 8 6 4 5 4 4 6 4 4 9 10 7 5 5 7 8 9 9 10 12 11 14 9 7 7 8
13 12 11 10 11 11 10 7 8 8 9 8 8 6 6 5 6 7 6 4 3 4 3 3 2 6 9 8 7 3 6 7 8 6 6 6 7 7 7 8 8 7 8
13 13 12 11 8 8 10 8 8 8 8 7 7 5 4 4 5 5 6 5 4 4 3 1 3 7 7 5 3 7 8 6 2 3 4 5 6 6 7 9 11 10 9
13 13 12 11 9 9 9 9 8 8 7 7 6 6 5 4 3 4 4 4 2 3 3 5 6 5 5 3 6 7 5 3 3 2 5 5 6 7 10 9 9 11 11
12 12 11 11 9 8 6 6 7 7 6 6 6 6 5 4 4 3 4 2 1 4 4 4 3 3 3 4 3 5 4 4 5 5 5 6 6 6 7 7 9 9 10
11 9 9 7 9 8 6 6 6 5 6 6 5 6 6 5 5 6 5 2 2 6 4 2 2 1 1 1 1 3 3 3 4 4 5 6 6 6 7 7 7 9 9
12 9 8 8 6 6 6 6 9 9 11 10 11 7 5 8 9 6 4 3 7 8 4 2 0 1 1 2 2 3 3 4 4 5 5 5 6 6 8 8 8 8 10
9 9 7 8 7 7 7 7 8 7 10 11 11 9 9 7 7 6 5 5 5 6 2 2 2 1 2 2 2 3 4 4 5 5 5 6 6 6 8 8 8 9 10
7 9 6 5 6 6 6 6 6 7 7 4 6 5 6 8 6 7 7 8 2 2 2 3 3 3 3 3 3 3 4 5 4 5 6 6 6 7 7 8 8 10 10
7 5 6 5 3 4 5 5 4 5 4 3 3 3 1 6 6 8 8 3 3 2 3 3 3 3 3 3 3 3 4 5 5 6 6 6 6 5 7 7 9 12 14
5 9 6 6 7 7 6 6 6 5 5 4 4 3 3 2 2 1 1 2 3 4 4 4 3 3 4 3 3 4 5 5 6 6 7 6 6 5 8 8 8 10 10
5 5 8 5 6 6 5 5 6 5 5 5 4 4 8 4 3 4 3 4 4 4 4 4 3 3 4 4 4 5 5 7 7 6 7 6 5 6 7 8 9 9 11
5 6 6 6 5 6 5 5 5 5 4 4 3 3 9 1 2 3 4 4 4 5 4 4 4 5 5 6 6 6 6 7 7 6 7 7 6 6 6 8 8 9 10
5 6 6 5 4 6 5 4 4 4 4 4 3 3 3 3 4 4 5 4 4 4 4 5 6 6 6 7 6 7 7 8 7 5 6 7 7 7 6 8 9 10 10
5 6 5 4 4 5 5 5 5 5 5 4 4 4 4 4 5 6 5 4 4 5 5 6 7 9 7 7 6 7 8 8 7 7 8 8 8 8 8 8 9 12 12
5 5 6 6 6 6 5 4 5 4 4 4 4 3 3 4 5 5 5 5 5 5 6 7 7 9 11 11 11 10 10 15 12 10 7 9 11 12 11 9 11 11 14
6 6 6 5 5 6 5 5 5 5 5 5 5 5 5 5 5 5 5 5 6 6 8 6 8 12 11 9 11 13 13 15 13 14 11 10 10 9 9 11 15 11 14
Wind_Direction
115 114 106 95 84 75 74 79 86 87 92 93 93 90 83 76 72 81 79 68 78 74 63 73 77 67 64 63 40 63 49 35 274 319 352 337 348 338 340 336 327 331 336
124 113 103 95 92 88 84 78 78 89 84 99 99 92 87 78 70 70 74 60 70 73 68 67 58 62 47 36 42 44 37 29 7 311 310 345 335 347 340 330 334 333 333
127 123 116 112 105 103 102 100 95 100 96 93 92 91 91 86 85 75 81 80 72 64 66 71 58 52 45 34 47 37 30 17 25 321 310 358 326 352 334 329 333 327 329
133 132 132 132 132 126 116 105 106 103 106 103 97 97 93 93 90 88 89 87 80 66 61 64 58 56 58 45 52 37 24 16 358 355 334 334 323 337 319 332 333 333 326
144 145 142 133 115 109 104 102 100 98 100 107 107 98 100 97 97 96 96 96 103 98 74 72 61 49 51 42 30 18 16 11 2 355 347 337 337 347 351 336 325 327 328
162 156 144 133 129 126 123 118 109 104 101 105 99 102 99 96 104 110 108 104 108 109 97 86 77 51 41 33 25 20 17 6 360 348 341 339 338 332 330 332 328 338 335
164 159 155 148 143 137 127 119 116 106 107 102 97 96 92 91 102 101 96 89 91 81 89 81 85 55 22 15 16 3 11 6 11 356 341 336 330 330 331 327 328 323 311
171 168 162 155 147 138 129 123 117 115 114 114 104 95 103 102 109 105 104 103 98 80 77 82 79 46 360 358 20 8 16 4 0 343 338 332 325 323 331 331 327 314 308
176 173 169 158 149 146 143 141 134 127 121 120 124 116 113 105 107 118 118 113 104 97 101 90 82 36 347 16 20 5 359 357 342 348 335 330 333 336 334 336 334 339 327
178 169 159 157 155 154 148 145 140 136 137 139 135 122 99 101 103 115 123 126 123 130 129 124 80 330 23 11 5 6 346 347 351 341 339 337 336 332 340 346 343 331 327
155 150 151 151 149 146 141 144 146 145 141 139 129 118 117 102 109 110 129 118 146 141 136 110 76 352 15 359 14 340 340 0 345 338 325 322 326 332 335 339 335 323 312
144 146 147 144 147 145 141 139 139 139 135 137 130 124 120 119 136 129 113 109 112 126 109 98 51 359 354 2 21 348 1 7 328 302 317 321 327 329 333 324 318 309 293
141 145 142 140 144 146 150 148 144 149 149 149 154 154 162 167 160 148 123 107 82 87 97 52 13 6 12 16 358 8 22 347 326 322 329 323 323 321 317 309 301 296 287
142 145 145 144 141 144 145 152 152 158 159 157 165 165 160 163 180 191 177 154 76 92 61 46 24 46 30 25 2 4 353 355 342 322 314 316 316 317 309 306 306 310 305
137 138 143 144 149 145 145 153 154 155 166 160 164 156 159 175 179 196 179 192 136 120 98 57 37 40 10 3 323 335 341 333 312 303 307 310 308 307 305 310 304 310 297
148 151 153 151 150 145 144 135 144 151 157 158 158 156 162 162 179 184 190 199 122 117 60 99 249 226 273 317 335 311 296 291 297 308 306 298 303 308 308 311 306 302 300
144 148 145 148 151 152 153 153 147 146 156 159 158 159 159 171 188 197 208 163 122 109 113 215 211 270 285 285 268 261 279 293 308 297 296 294 300 305 310 304 301 299 297
117 129 139 144 144 145 155 155 148 157 160 158 154 159 190 190 202 215 219 133 115 46 150 191 228 222 229 242 249 263 284 292 284 287 287 285 290 289 292 291 294 298 300
123 126 126 119 118 137 138 142 156 158 167 159 162 190 178 201 231 242 237 150 171 210 222 234 221 223 238 228 249 257 255 267 274 278 276 275 270 267 279 284 288 294 295
136 143 143 149 153 157 153 155 161 170 176 184 188 191 156 140 130 228 259 176 200 224 220 235 227 220 239 229 236 243 258 260 262 259 259 259 263 258 276 283 286 292 292
145 143 152 157 161 167 168 175 169 170 179 180 196 194 189 171 199 212 220 226 228 241 243 229 229 219 216 231 233 238 243 257 255 253 257 259 258 265 269 276 283 283 286
158 161 165 177 170 170 171 170 168 177 179 189 182 216 242 66 190 225 232 236 227 221 212 226 240 233 228 226 224 229 239 248 250 245 252 259 257 264 269 276 279 282 284
163 172 175 172 169 158 168 169 176 190 190 190 190 196 207 223 238 237 236 235 226 227 222 218 237 245 228 229 222 222 234 245 245 220 246 259 264 267 267 272 276 280 280
171 180 180 171 173 181 182 186 190 198 197 197 200 202 213 204 217 234 240 237 233 235 220 226 229 236 244 233 228 227 233 244 243 242 234 255 262 265 264 267 269 272 273
180 181 182 185 193 196 189 194 201 202 203 207 219 208 208 220 228 228 224 225 234 235 242 230 232 236 237 240 243 237 238 252 254 249 246 248 256 258 258 258 264 269 269
184 190 196 190 194 193 195 199 208 201 210 215 219 221 226 225 229 228 228 223 233 239 245 242 240 239 242 246 246 249 251 253 251 242 233 234 240 245 246 252 262 269 280